Flag for U.S.A. Weather past 2 weeks in Bowling Green, Kentucky, U.S.A.

Now
47 °F

Clear.


Feels Like: 46 °F
Forecast: 42 / 56 °F
Wind: 3 mph from South

Location: Glasgow Municipal Airport

Current Time: Dec 26, 2014 at 8:28:50 PM

Latest Report: Dec 26, 2014 at 7:55 PM


Visibility: 10 mi

Pressure: 30.21 "Hg

Humidity: 63%

Dew point: 35 °F

Location of Bowling GreenLocation

Historic Weather in Bowling Green — Graph

°F

Bowling Green temperature yesterday

Maximum temperature yesterday: 46 °F (at 2:15 PM)
Minimum temperature yesterday: 30 °F (at 11:55 PM)
Average temperature yesterday: 39 °F

Past Weeks' High & Low Weather Summary

 TemperatureHumidityPressure
High58 °F (Dec 23, 1:15 PM)100% (Dec 11, 10:35 PM)30.43 "Hg (Dec 11, 10:35 PM)
Low20 °F (Dec 12, 6:55 AM)42% (Dec 21, 2:15 PM)29.51 "Hg (Dec 24, 2:55 AM)
Average40 °F81%30.11 "Hg
* Reported Dec 11 7:15 PM — Dec 26 7:15 PM, Bowling Green, Weather by CustomWeather, © 2014

Note: Actual official high and low records may vary slightly from our data, if they occured in-between our weather recording intervals... More about our weather records

Advertising

Bowling Green weather history for previous 24 hours

 ConditionsComfort  
Time TempWeatherWind HumidityBarometerVisibility
7:15 PM
Dec 26
47 °FClear.5 mph60%30.21 "Hg10 mi
6:55 PM48 °FClear.5 mph57%30.22 "Hg10 mi
6:35 PM49 °FClear.3 mph57%30.21 "Hg10 mi
6:15 PM49 °FClear.3 mph57%30.20 "Hg10 mi
5:55 PM49 °FClear.3 mph59%30.21 "Hg10 mi
5:15 PM47 °FClear.No wind63%30.20 "Hg10 mi
4:55 PM47 °FClear.No wind64%30.21 "Hg10 mi
4:15 PM52 °FClear.3 mph51%30.22 "Hg10 mi
3:55 PM53 °FClear.No wind50%30.23 "Hg10 mi
2:55 PM54 °FSunny.7 mph46%30.22 "Hg10 mi
2:15 PM56 °FSunny.9 mph42%30.22 "Hg10 mi
1:55 PM55 °FSunny.7 mph45%30.21 "Hg10 mi
1:15 PM55 °FSunny.10 mph46%30.21 "Hg10 mi
12:55 PM55 °FSunny.10 mph44%30.22 "Hg10 mi
12:15 PM53 °FSunny.8 mph54%30.24 "Hg10 mi
11:55 AM51 °FSunny.7 mph58%30.25 "Hg10 mi
11:15 AM50 °FSunny.9 mph62%30.28 "Hg10 mi
10:55 AM49 °FSunny.12 mph63%30.29 "Hg10 mi
10:15 AM48 °FSunny.8 mph67%30.31 "Hg10 mi
9:55 AM46 °FSunny.8 mph71%30.31 "Hg10 mi
9:15 AM43 °FSunny.8 mph77%30.31 "Hg10 mi
8:55 AM42 °FSunny.6 mph79%30.30 "Hg10 mi
8:15 AM38 °FSunny.6 mph87%30.29 "Hg10 mi
7:55 AM36 °FSunny.5 mph91%30.29 "Hg10 mi
7:35 AM34 °FSunny.No wind97%30.29 "Hg10 mi
7:15 AM32 °FSunny.No wind100%30.29 "Hg10 mi
6:55 AM32 °FSunny.No wind100%30.28 "Hg10 mi
6:35 AM31 °FSunny.No wind100%30.28 "Hg10 mi
6:15 AM30 °FSunny.No wind100%30.27 "Hg10 mi
5:55 AM31 °FSunny.No wind100%30.26 "Hg10 mi
5:15 AM29 °FClear.No wind100%30.26 "Hg10 mi
4:55 AM29 °FClear.No wind100%30.25 "Hg10 mi
4:35 AM28 °FClear.No wind100%30.26 "Hg7 mi
4:15 AM29 °FClear.No wind100%30.25 "Hg7 mi
3:55 AM28 °FClear.No wind100%30.25 "Hg10 mi
3:35 AM29 °FClear.No wind98%30.24 "Hg10 mi
3:15 AM32 °FClear.No wind100%30.24 "Hg10 mi
2:55 AM29 °FClear.No wind100%30.23 "Hg10 mi
2:15 AM31 °FClear.No wind100%30.23 "Hg10 mi
1:55 AM33 °FClear.No wind100%30.22 "Hg10 mi
1:35 AM34 °FClear.No wind97%30.21 "Hg10 mi
1:15 AM32 °FClear.No wind100%30.22 "Hg10 mi
12:55 AM34 °FClear.No wind93%30.21 "Hg10 mi
12:35 AM32 °FClear.No wind96%30.20 "Hg10 mi
12:15 AM29 °FClear.No wind100%30.21 "Hg10 mi
11:55 PM
Dec 25
30 °FClear.No wind100%30.21 "Hg10 mi
11:35 PM31 °FClear.No wind100%30.21 "Hg10 mi
11:15 PM30 °FClear.No wind100%30.21 "Hg10 mi
10:55 PM31 °FClear.No wind100%30.21 "Hg10 mi
10:35 PM32 °FClear.No wind100%30.21 "Hg10 mi
10:15 PM34 °FClear.No wind90%30.20 "Hg10 mi
9:55 PM35 °FClear.No wind88%30.19 "Hg10 mi
9:35 PM34 °FClear.No wind88%30.18 "Hg10 mi
8:55 PM36 °FClear.3 mph86%30.17 "Hg10 mi
8:35 PM36 °FClear.5 mph86%30.17 "Hg10 mi
8:15 PM36 °FClear.No wind84%30.18 "Hg10 mi
Weather by CustomWeather, © 2014

See weather overviewHow to use our weather pages